KOSEN 1
1 49402U 21102H   25330.67617513  .00010190  00000-0  43197-3 0  9992
2 49402  97.3494  11.9032 0014297 196.3660 163.7117 15.23227554223152
HO-113
1 50466U 21131B   25330.88910830  .00000739  00000-0  24327-3 0  9999
2 50466  98.5064  59.3904 0003865   1.6008 358.5193 14.41079560205976
SNUGLITE 2
1 52899U 22065F   25330.39675169  .00001570  00000-0  31024-3 0  9993
2 52899  98.1918 111.0234 0006539 305.3798  54.6793 14.63765520181329
UmKA 1 (RS40S)
1 57172U 23091G   25330.85600312  .00008306  00000-0  41230-3 0  9995
2 57172  97.5360  25.3912 0015080 103.4295 256.8621 15.17852341133288
CubeBel-2 (EU11S)
1 57175U 23091K   25330.82860208  .00014106  00000-0  59365-3 0  9990
2 57175  97.5361  27.7123 0012465 106.3180 253.9428 15.23420398133431
SONATE-2
1 59112U 24043Q   25330.64963852  .00030693  00000-0  67581-3 0  9998
2 59112  97.5328 106.3165 0008869 220.7555 139.3030 15.43864402 96497
MO-122
1 60209U 24125G   25330.53734883  .00035695  00000-0  75748-3 0  9997
2 60209  97.2539 180.9128 0013435 242.4525 117.5359 15.44868540 78105
GRBBeta
1 60237U 24128C   25330.80176448  .00005570  00000-0  39653-3 0  9992
2 60237  61.9889 205.3012 0056794  93.4624 267.2967 15.04529834 75791
Curium One
1 60242U 24128H   25330.75616959  .00009973  00000-0  62637-3 0  9997
2 60242  61.9780 200.7087 0056676  90.4019 270.3569 15.08475290 75874
ROBUSTA-3A
1 60243U 24128J   25330.75284854  .00009940  00000-0  63461-3 0  9993
2 60243  61.9861 202.1842 0056678  87.9051 272.8532 15.07879708 75855
CatSat
1 60246U 24125J   25330.55715161  .00041226  00000-0  10466-2 0  9990
2 60246  97.2338 178.1320 0033712 203.7658 156.2033 15.38949478 76035
HYPERVIEW-1G (RS66S)
1 61772U 24199AP  25330.82991175  .00045299  00000-0  92140-3 0  9991
2 61772  97.3224 200.0845 0009156 309.4359  50.6079 15.46115101103157
AO-123
1 61781U 24199AY  25330.86291722  .00011466  00000-0  37859-3 0  9991
2 61781  97.3260 196.4907 0013782 319.2047  40.8162 15.31469829102917
ZIMSAT 2
1 61783U 24199BA  25330.85506481  .00171463  00000-0  16365-2 0  9995
2 61783  97.3120 203.1140 0004299 309.3813  50.7066 15.66202836106517
HADES-R (SO-124)
1 62690U 25009CK  25330.17170024  .00138504  00000-0  21940-2 0  9993
2 62690  97.3901  52.2320 0002546 229.1094 130.9939 15.52918703 48201
HYDRA-T
1 62692U 25009CM  25330.16608695  .00149510  00000-0  22615-2 0  9993
2 62692  97.3898  52.3909 0002334 231.7122 128.3922 15.54160410 48218
JINJUSat 1B
1 63210U 25052A   25330.65775796  .00020274  00000-0  79084-3 0  9997
2 63210  97.4199 222.9220 0006097  81.8380 278.3550 15.25944417 39130
NUSHSAT 1
1 63211U 25052B   25330.66349286  .00023140  00000-0  87698-3 0  9995
2 63211  97.4183 223.0291 0006055  84.5097 275.6832 15.26877035 39149
TEVEL2-4
1 63213U 25052D   25330.65759986  .00021819  00000-0  84279-3 0  9991
2 63213  97.4104 222.6076 0005064  94.0085 266.1733 15.26262594 39134
TEVEL2-5
1 63214U 25052E   25330.66231656  .00021357  00000-0  82668-3 0  9999
2 63214  97.4100 222.6021 0005068  94.7406 265.4411 15.26196374 39136
TEVEL2-6
1 63215U 25052F   25330.66912486  .00020932  00000-0  81149-3 0  9998
2 63215  97.4103 222.5974 0005182  94.8654 265.3176 15.26149051 39136
TEVEL2-1
1 63217U 25052H   25330.64287877  .00020727  00000-0  81114-3 0  9991
2 63217  97.4081 222.3958 0005070 103.7396 256.4407 15.25837518 39120
TEVEL2-3
1 63218U 25052J   25330.70787500  .00020673  00000-0  80852-3 0  9995
2 63218  97.4084 222.4651 0005079 104.4014 255.7788 15.25859012 39137
TEVEL2-2
1 63219U 25052K   25330.64365992  .00020663  00000-0  80861-3 0  9995
2 63219  97.4080 222.3970 0005057 104.6543 255.5256 15.25838088 39129
TEVEL2-9
1 63237U 25052AD  25330.65676442  .00019558  00000-0  79909-3 0  9993
2 63237  97.4144 222.1385 0008401 125.9882 234.2135 15.24384077 39095
TEVEL2-7
1 63238U 25052AE  25330.66915487  .00018837  00000-0  77295-3 0  9995
2 63238  97.4143 222.1282 0008578 125.7595 234.4441 15.24245889 39094
TEVEL2-8
1 63239U 25052AF  25330.67451381  .00018675  00000-0  76695-3 0  9998
2 63239  97.4145 222.1186 0008555 126.1442 234.0589 15.24219667 39095
HYDRA-W
1 63490U 25052BL  25330.65110455  .00069202  00000-0  18047-2 0  9997
2 63490  97.4070 224.2371 0010860 111.9525 248.2875 15.38526611 39243
HADES-ICM (SO-125)
1 63492U 25052BN  25330.69234889  .00062689  00000-0  17250-2 0  9998
2 63492  97.4079 224.0518 0010834 116.4009 243.8348 15.36894523 39236
Dragonfly
1 65729U 98067XH  25330.68694126  .00137012  00000-0  12763-2 0  9999
2 65729  51.6260 217.5966 0006227 186.0344 174.0577 15.66389378 10648
RSP-03
1 65732U 98067XL  25330.78812678  .00108268  00000-0  11025-2 0  9999
2 65732  51.6276 217.5245 0006863 162.7222 197.4007 15.64263891 10669
GHS-01
1 65733U 98067XM  25330.72456461  .00163321  00000-0  14166-2 0  9998
2 65733  51.6282 217.1023 0006731 183.7938 176.3009 15.68051207 10666
BOTAN
1 65942U 98067XP  25330.07114225  .00093897  00000-0  11748-2 0  9990
2 65942  51.6292 223.2382 0004694 136.9718 223.1642 15.59015960  7269
CEVROSAT1
1 98526U 25248E   25313.13142326  .00000000  00000-0  19360-3 0    02
2 98526  45.4084 218.4764 0001315 254.8982 242.1062 15.17981583    02
